Location: Observatoire
(46.1952°N, 5.3391°E)
Time: 14:48:27
(UTC+01:00)

A-11 Canister half - Pass Details

Date: 18 February 2026
Orbit: 1513 x 1687 km, 47.2° (Epoch: 11 March)

Event Time Altitude Azimuth Distance (km) Brightness Sun altitude
Rises 06:09:24 0° 285° (WNW) 4,805 - -15.8°
Reaches altitude 10° 06:15:44 10° 255° (WSW) 3,766 - -14.7°
Exits shadow 06:17:55 11° 241° (WSW) 3,650 10.5 -14.3°
Maximum altitude 06:18:12 11° 239° (WSW) 3,647 10.5 -14.3°
Drops below altitude 10° 06:20:39 10° 224° (SW) 3,727 10.6 -13.9°
Sets 06:26:52 0° 193° (SSW) 4,668 11.4 -12.8°
